Ardmore, OK

7:24 AM CDT on April 19, 2018 (GMT -0500)
Ardmore Municipal

Weather History for KADM - December, 2014

Change the Weather History Date:

Saturday, December 27, 2014

  Actual Average Record
Temperature  
Mean Temperature 36 °F -  
Max Temperature 44 °F 51 °F 77 °F (2005)
Min Temperature 28 °F 32 °F 21 °F (2013)
Degree Days  
Heating Degree Days 29    
Moisture  
Dew Point 33 °F    
Average Humidity 89    
Maximum Humidity 95    
Minimum Humidity 81    
Precipitation  
Precipitation 0.03 in - - ()
Sea Level Pressure  
Sea Level Pressure 30.21 in    
Wind  
Wind Speed 14 mph (NNW)    
Max Wind Speed 21 mph    
Max Gust Speed 30 mph    
Visibility 10 miles    
Events Rain    
Averages and records for this station are not official NWS values.
T = Trace of Precipitation, MM = Missing Value Source: NWS Daily Summary

Daily Weather History Graph

Daily Weather History Graph

Search for Another Location

Airport or City:

Astronomy

Dec. 27, 2014 Rise Set
Actual Time 7:32 AM CST 5:25 PM CST
Civil Twilight 7:05 AM CST 5:53 PM CST
Nautical Twilight 6:33 AM CST 6:24 PM CST
Astronomical Twilight 6:03 AM CST 6:55 PM CST
Moon 11:36 AM CST (12/27) No Moon Set
Length of Visible Light 10h 48m
Length of Day
9h 52m
Waxing Crescent, 38% of the Moon is Illuminated
Dec 27
Waxing Crescent
Dec 28
First Quarter
Jan 4
Full
Jan 13
Last Quarter
Jan 20
New

Hourly Weather History & Observations

Time (CST) Temp. Windchill Dew Point Humidity Pressure Visibility Wind Dir Wind Speed Gust Speed Precip Events Conditions
12:15 AM 44.1 °F 35.7 °F 39.7 °F 85% 30.04 in 10.0 mi North 20.7 mph 26.5 mph N/A   Overcast
12:35 AM 43.3 °F 35.8 °F 39.2 °F 85% 30.05 in 10.0 mi North 16.1 mph 29.9 mph N/A   Overcast
12:55 AM 43.0 °F 35.7 °F 38.3 °F 84% 30.06 in 10.0 mi North 15.0 mph 25.3 mph N/A   Overcast
1:15 AM 42.4 °F 34.1 °F 37.4 °F 82% 30.07 in 10.0 mi North 18.4 mph 26.5 mph 0.01 in   Overcast
1:35 AM 41.2 °F 33.4 °F 37.4 °F 86% 30.08 in 10.0 mi North 15.0 mph 23.0 mph 0.01 in Rain Light Rain
1:55 AM 41.0 °F 33.9 °F 37.4 °F 87% 30.08 in 10.0 mi North 12.7 mph 18.4 mph 0.01 in   Overcast
2:15 AM 41.0 °F 34.3 °F 36.9 °F 85% 30.10 in 10.0 mi North 11.5 mph 16.1 mph N/A   Overcast
2:35 AM 40.3 °F 32.2 °F 36.1 °F 85% 30.10 in 10.0 mi North 15.0 mph 19.6 mph N/A   Overcast
2:55 AM 40.1 °F 31.6 °F 36.5 °F 87% 30.10 in 10.0 mi North 16.1 mph 19.6 mph N/A Rain Light Rain
3:15 AM 39.6 °F 31.7 °F 36.5 °F 89% 30.12 in 10.0 mi North 13.8 mph 19.6 mph N/A   Overcast
3:35 AM 38.8 °F 30.8 °F 36.1 °F 90% 30.14 in 3.0 mi North 13.8 mph 20.7 mph N/A Rain Heavy Rain
3:55 AM 37.9 °F 30.9 °F 36.5 °F 95% 30.15 in 3.0 mi North 10.4 mph 16.1 mph N/A Rain Rain
4:15 AM 37.8 °F 29.8 °F 36.5 °F 95% 30.15 in 7.0 mi North 12.7 mph 16.1 mph N/A   Drizzle
4:35 AM 37.9 °F 30.5 °F 36.3 °F 94% 30.14 in 10.0 mi North 11.5 mph 19.6 mph N/A   Light Drizzle
4:55 AM 37.8 °F 28.6 °F 35.6 °F 92% 30.15 in 10.0 mi North 16.1 mph 25.3 mph N/A Rain Light Rain
5:15 AM 37.8 °F 29.8 °F 35.2 °F 91% 30.15 in 10.0 mi North 12.7 mph 23.0 mph 0.01 in   Overcast
5:35 AM 37.8 °F 29.4 °F 35.2 °F 91% 30.16 in 10.0 mi North 13.8 mph 17.3 mph 0.01 in   Overcast
6:55 AM 37.4 °F 30.8 °F 33.8 °F 87% 30.22 in 10.0 mi North 9.2 mph - N/A   Overcast
7:55 AM 37.4 °F 29.3 °F 33.8 °F 87% 30.25 in 10.0 mi NNW 12.7 mph 16.1 mph N/A   Overcast
8:55 AM 35.6 °F 27.1 °F 33.8 °F 93% 30.28 in 10.0 mi North 12.7 mph - N/A   Overcast
9:55 AM 35.6 °F 27.5 °F 33.8 °F 93% 30.28 in 10.0 mi North 11.5 mph - N/A   Overcast
10:55 AM 35.6 °F 26.2 °F 32.0 °F 87% 30.28 in 10.0 mi North 15.0 mph - N/A   Overcast
11:55 AM 35.6 °F 28.0 °F 32.0 °F 87% 30.28 in 10.0 mi North 10.4 mph - N/A   Overcast
12:55 PM 33.8 °F 26.4 °F 32.0 °F 93% 30.26 in 7.0 mi North 9.2 mph - N/A Rain Light Rain
1:55 PM 33.8 °F 24.8 °F 32.0 °F 93% 30.24 in 10.0 mi North 12.7 mph 18.4 mph N/A   Overcast
2:55 PM 33.8 °F 24.3 °F 32.0 °F 93% 30.25 in 10.0 mi NNW 13.8 mph 19.6 mph N/A   Overcast
3:55 PM 33.8 °F 24.8 °F 30.2 °F 87% 30.28 in 10.0 mi NNW 12.7 mph - N/A   Overcast
4:55 PM 35.6 °F 28.6 °F 30.2 °F 81% 30.28 in 10.0 mi North 9.2 mph - N/A   Overcast
9:15 PM 28.4 °F 24.6 °F 26.8 °F 94% 30.33 in 10.0 mi WNW 3.5 mph - N/A   Clear
9:35 PM 28.8 °F 25.0 °F 27.0 °F 93% 30.32 in 10.0 mi NNW 3.5 mph - N/A   Clear
9:55 PM 28.2 °F 24.4 °F 26.6 °F 94% 30.32 in 10.0 mi NW 3.5 mph - N/A   Clear
10:15 PM 29.3 °F 24.3 °F 27.5 °F 93% 30.32 in 10.0 mi NNW 4.6 mph - N/A   Clear
10:35 PM 30.0 °F 22.4 °F 27.9 °F 92% 30.32 in 10.0 mi NNW 8.1 mph - N/A   Clear
10:55 PM 30.7 °F 24.1 °F 27.5 °F 88% 30.32 in 10.0 mi NNW 6.9 mph - N/A   Clear
11:15 PM 30.9 °F 24.3 °F 27.5 °F 87% 30.32 in 10.0 mi NNW 6.9 mph - N/A   Clear
11:35 PM 30.7 °F 24.1 °F 27.3 °F 87% 30.31 in 10.0 mi NNW 6.9 mph - N/A   Clear
11:55 PM 31.1 °F 24.5 °F 27.1 °F 85% 30.31 in 10.0 mi NNW 6.9 mph - 0.01 in   Clear